• Em Portugal
  • Lista de países
  • Para 7 dias
  • Temperatura da água
  • Mapas de satélite
  • Mapa do tempo
  • Widgets de tempo
  • user-avatar
    Iniciar Sessão

    Previsão horária em Ouahigouya

    Hoje, 18 Agosto, Sexta-feira

    Tempo Temperatura Precipitação Vento Pressão Humidade
    00:00 +33°C° 0 mm 4 m/s 725 mmHg 57%
    01:00 +33°C° 0 mm 5 m/s 725 mmHg 60%
    02:00 +32°C° 0 mm 5 m/s 725 mmHg 63%
    03:00 +32°C° 0 mm 5 m/s 725 mmHg 66%
    04:00 +30°C° 0 mm 6 m/s 725 mmHg 68%
    05:00 +30°C° 0 mm 6 m/s 725 mmHg 70%
    06:00 +30°C° 0 mm 6 m/s 725 mmHg 71%
    07:00 +30°C° 0 mm 6 m/s 726 mmHg 69%
    08:00 +32°C° 0 mm 7 m/s 726 mmHg 67%
    09:00 +32°C° 0 mm 7 m/s 726 mmHg 66%
    10:00 +33°C° 0 mm 7 m/s 726 mmHg 62%
    11:00 +35°C° 0 mm 7 m/s 726 mmHg 57%
    12:00 +36°C° 0 mm 7 m/s 726 mmHg 53%
    13:00 +36°C° 0,6 mm 6 m/s 726 mmHg 54%
    14:00 +35°C° 0,6 mm 6 m/s 726 mmHg 55%
    15:00 +35°C° 0,6 mm 6 m/s 726 mmHg 56%
    16:00 +34°C° 0,5 mm 6 m/s 726 mmHg 60%
    17:00 +33°C° 0,5 mm 7 m/s 726 mmHg 63%
    18:00 +32°C° 0,5 mm 7 m/s 726 mmHg 66%
    19:00 +30°C° 0 mm 7 m/s 726 mmHg 69%
    20:00 +29°C° 0 mm 6 m/s 727 mmHg 71%
    21:00 +28°C° 0 mm 6 m/s 727 mmHg 74%
    22:00 +28°C° 0 mm 6 m/s 727 mmHg 74%
    23:00 +28°C° 0 mm 5 m/s 727 mmHg 75%

    Amanhã, 19 Agosto, Sábado

    Tempo Temperatura Precipitação Vento Pressão Humidade
    00:00 +27°C° 0 mm 5 m/s 727 mmHg 76%
    01:00 +27°C° 0,1 mm 4 m/s 727 mmHg 76%
    02:00 +27°C° 0,1 mm 3 m/s 727 mmHg 76%
    03:00 +27°C° 0,1 mm 2 m/s 727 mmHg 75%
    04:00 +27°C° 0,1 mm 2 m/s 727 mmHg 76%
    05:00 +27°C° 0,1 mm 2 m/s 727 mmHg 76%
    06:00 +27°C° 0,1 mm 2 m/s 727 mmHg 76%
    07:00 +28°C° 0 mm 3 m/s 728 mmHg 71%
    08:00 +29°C° 0 mm 4 m/s 728 mmHg 67%
    09:00 +30°C° 0 mm 5 m/s 729 mmHg 62%
    10:00 +32°C° 0 mm 5 m/s 729 mmHg 58%
    11:00 +33°C° 0 mm 5 m/s 729 mmHg 54%
    12:00 +34°C° 0 mm 5 m/s 729 mmHg 50%
    13:00 +34°C° 0,8 mm 4 m/s 728 mmHg 51%
    14:00 +34°C° 0,8 mm 4 m/s 728 mmHg 52%
    15:00 +33°C° 0,8 mm 4 m/s 727 mmHg 53%
    16:00 +33°C° 0,8 mm 4 m/s 727 mmHg 56%
    17:00 +32°C° 0,8 mm 4 m/s 727 mmHg 60%
    18:00 +30°C° 0,8 mm 4 m/s 728 mmHg 63%
    19:00 +30°C° 0,7 mm 4 m/s 728 mmHg 65%
    20:00 +29°C° 0,7 mm 3 m/s 729 mmHg 66%
    21:00 +29°C° 0,7 mm 3 m/s 729 mmHg 68%
    22:00 +29°C° 0,9 mm 4 m/s 729 mmHg 69%
    23:00 +29°C° 0,9 mm 4 m/s 729 mmHg 71%

    Depois de amanhã, 20 Agosto, Domingo

    Tempo Temperatura Precipitação Vento Pressão Humidade
    00:00 +28°C° 0,9 mm 4 m/s 729 mmHg 73%
    01:00 +28°C° 0,1 mm 4 m/s 729 mmHg 74%
    02:00 +28°C° 0,1 mm 4 m/s 729 mmHg 75%
    03:00 +28°C° 0,1 mm 4 m/s 729 mmHg 76%
    04:00 +27°C° 0,1 mm 4 m/s 729 mmHg 76%
    05:00 +27°C° 0,1 mm 4 m/s 730 mmHg 77%
    06:00 +27°C° 0,1 mm 4 m/s 730 mmHg 77%
    07:00 +28°C° 0,1 mm 4 m/s 730 mmHg 75%
    08:00 +28°C° 0,1 mm 5 m/s 731 mmHg 72%
    09:00 +29°C° 0,1 mm 5 m/s 731 mmHg 70%
    10:00 +30°C° 0 mm 5 m/s 731 mmHg 65%
    11:00 +32°C° 0 mm 5 m/s 731 mmHg 60%
    12:00 +33°C° 0 mm 5 m/s 731 mmHg 55%
    13:00 +34°C° 0,1 mm 5 m/s 730 mmHg 54%
    14:00 +34°C° 0,1 mm 5 m/s 730 mmHg 52%
    15:00 +34°C° 0,1 mm 4 m/s 729 mmHg 50%
    16:00 +34°C° 0 mm 4 m/s 729 mmHg 52%
    17:00 +34°C° 0 mm 4 m/s 729 mmHg 54%
    18:00 +33°C° 0 mm 3 m/s 729 mmHg 56%
    19:00 +33°C° 0 mm 3 m/s 730 mmHg 58%
    20:00 +31°C° 0 mm 3 m/s 730 mmHg 61%
    21:00 +31°C° 0 mm 3 m/s 731 mmHg 63%
    22:00 +30°C° 0 mm 3 m/s 731 mmHg 65%
    23:00 +30°C° 0 mm 3 m/s 731 mmHg 66%

    21 Agosto, Segunda-feira

    Tempo Temperatura Precipitação Vento Pressão Humidade
    00:00 +29°C° 0 mm 3 m/s 731 mmHg 68%
    01:00 +29°C° 0,2 mm 3 m/s 731 mmHg 70%
    02:00 +29°C° 0,2 mm 3 m/s 730 mmHg 71%
    03:00 +28°C° 0,2 mm 3 m/s 730 mmHg 72%
    04:00 +28°C° 0 mm 3 m/s 730 mmHg 74%
    05:00 +28°C° 0 mm 3 m/s 730 mmHg 75%
    06:00 +28°C° 0 mm 4 m/s 730 mmHg 76%
    07:00 +29°C° 0 mm 4 m/s 731 mmHg 71%
    08:00 +30°C° 0 mm 4 m/s 731 mmHg 67%
    09:00 +32°C° 0 mm 5 m/s 732 mmHg 62%
    10:00 +33°C° 0,3 mm 4 m/s 731 mmHg 58%
    11:00 +34°C° 0,3 mm 4 m/s 731 mmHg 54%
    12:00 +35°C° 0,3 mm 4 m/s 731 mmHg 50%
    13:00 +35°C° 0 mm 4 m/s 730 mmHg 50%
    14:00 +35°C° 0 mm 4 m/s 729 mmHg 49%
    15:00 +35°C° 0 mm 4 m/s 729 mmHg 48%
    16:00 +35°C° 0 mm 3 m/s 729 mmHg 49%
    17:00 +35°C° 0 mm 3 m/s 729 mmHg 50%
    18:00 +35°C° 0 mm 2 m/s 729 mmHg 51%
    19:00 +34°C° 0 mm 2 m/s 730 mmHg 52%
    20:00 +34°C° 0 mm 2 m/s 730 mmHg 53%
    21:00 +32°C° 0 mm 2 m/s 730 mmHg 55%
    22:00 +33°C° 0 mm 3 m/s 730 mmHg 57%
    23:00 +31°C° 0 mm 3 m/s 730 mmHg 59%

    22 Agosto, Terça-feira

    Tempo Temperatura Precipitação Vento Pressão Humidade
    00:00 +32°C° 0 mm 4 m/s 730 mmHg 62%
    01:00 +30°C° 0,2 mm 4 m/s 729 mmHg 64%
    02:00 +30°C° 0,2 mm 4 m/s 729 mmHg 67%
    03:00 +29°C° 0,2 mm 4 m/s 728 mmHg 69%
    04:00 +29°C° 2,4 mm 4 m/s 729 mmHg 71%
    05:00 +28°C° 2,4 mm 4 m/s 730 mmHg 73%
    06:00 +28°C° 2,4 mm 3 m/s 730 mmHg 75%
    07:00 +29°C° 0,5 mm 4 m/s 730 mmHg 74%
    08:00 +29°C° 0,5 mm 4 m/s 731 mmHg 72%
    09:00 +29°C° 0,5 mm 4 m/s 731 mmHg 70%
    10:00 +32°C° 0 mm 4 m/s 730 mmHg 63%
    11:00 +33°C° 0 mm 3 m/s 730 mmHg 57%
    12:00 +35°C° 0 mm 3 m/s 730 mmHg 51%
    13:00 +35°C° 0 mm 2 m/s 729 mmHg 49%
    14:00 +35°C° 0 mm 2 m/s 729 mmHg 47%
    15:00 +35°C° 0 mm 1 m/s 728 mmHg 45%
    16:00 +35°C° 0,2 mm 3 m/s 728 mmHg 50%
    17:00 +34°C° 0,2 mm 4 m/s 728 mmHg 54%
    18:00 +33°C° 0,2 mm 6 m/s 728 mmHg 59%
    19:00 +32°C° 0,6 mm 5 m/s 728 mmHg 64%
    20:00 +30°C° 0,6 mm 5 m/s 729 mmHg 68%
    21:00 +29°C° 0,6 mm 4 m/s 729 mmHg 72%
    22:00 +28°C° 0,5 mm 4 m/s 729 mmHg 73%
    23:00 +28°C° 0,5 mm 3 m/s 729 mmHg 74%

    23 Agosto, Quarta-feira

    Tempo Temperatura Precipitação Vento Pressão Humidade
    00:00 +28°C° 0,5 mm 3 m/s 729 mmHg 74%
    01:00 +28°C° 0,1 mm 3 m/s 729 mmHg 75%
    02:00 +27°C° 0,1 mm 3 m/s 729 mmHg 76%
    03:00 +27°C° 0,1 mm 2 m/s 729 mmHg 77%
    04:00 +27°C° 0 mm 2 m/s 729 mmHg 77%
    05:00 +27°C° 0 mm 2 m/s 729 mmHg 77%
    06:00 +27°C° 0 mm 2 m/s 729 mmHg 77%
    07:00 +28°C° 0 mm 3 m/s 729 mmHg 72%
    08:00 +29°C° 0 mm 3 m/s 730 mmHg 68%
    09:00 +29°C° 0 mm 3 m/s 730 mmHg 63%
    10:00 +31°C° 0 mm 3 m/s 730 mmHg 59%
    11:00 +33°C° 0 mm 3 m/s 729 mmHg 54%
    12:00 +34°C° 0 mm 3 m/s 729 mmHg 50%
    13:00 +35°C° 0 mm 3 m/s 728 mmHg 47%
    14:00 +35°C° 0 mm 2 m/s 728 mmHg 44%
    15:00 +36°C° 0 mm 2 m/s 727 mmHg 42%
    16:00 +36°C° 0 mm 2 m/s 727 mmHg 43%
    17:00 +35°C° 0 mm 2 m/s 727 mmHg 44%
    18:00 +35°C° 0 mm 2 m/s 727 mmHg 45%
    19:00 +34°C° 0 mm 2 m/s 728 mmHg 48%
    20:00 +34°C° 0 mm 3 m/s 728 mmHg 50%
    21:00 +33°C° 0 mm 3 m/s 728 mmHg 53%
    22:00 +32°C° 0 mm 4 m/s 728 mmHg 55%
    23:00 +32°C° 0 mm 4 m/s 728 mmHg 58%
    Mostrar mais